GW2652 Weather Reports


Display with metric or nautical units.
time (UTC)temp
F
wind
direction
speed
MPH
gust
MPH
rain 1hr
in
rain 24hr
in
rain mn
in
humidity
%
barometer
mb
20260505061235 55 147 1.0 1.0 0.00 0.00 0.00 68 1004.8
20260505060732 55 162 1.0 1.0 0.00 0.00 0.00 69 1004.7
20260505060229 55 121 0.0 1.0 0.00 0.00 0.00 67 1005.0
20260505055724 55 119 1.0 1.0 0.00 0.00 0.00 67 1004.9
20260505055221 54 200 0.0 0.0 0.00 0.00 0.00 72 1004.9
20260505054718 53 167 0.0 1.0 0.00 0.00 0.00 74 1005.0
20260505054216 53 148 0.0 1.0 0.00 0.00 0.00 72 1005.0
20260505053714 54 127 2.0 2.0 0.00 0.00 0.00 72 1005.0
20260505053210 55 153 0.0 1.0 0.00 0.00 0.00 71 1005.0
20260505052708 55 144 1.0 2.0 0.00 0.00 0.00 69 1005.0
20260505052204 56 155 0.0 1.0 0.00 0.00 0.00 66 1005.0
20260505051701 56 158 2.0 3.0 0.00 0.00 0.00 65 1005.3
20260505051159 57 116 1.0 1.0 0.00 0.00 0.00 65 1005.4
20260505050657 57 148 0.0 0.0 0.00 0.00 0.00 64 1005.3
20260505050155 56 144 2.0 4.0 0.00 0.00 0.00 64 1005.3
20260505041625 57 134 0.0 0.0 0.00 0.00 0.00 65 1005.2
20260505041122 58 134 0.0 0.0 0.00 0.00 0.00 63 1005.1
20260505040619 58 174 0.0 0.0 0.00 0.00 0.00 64 1005.3
20260505040116 58 157 0.0 1.0 0.00 0.00 0.00 61 1004.9
20260505035613 58 165 0.0 1.0 0.00 0.00 0.00 64 1005.0
20260505035109 58 161 1.0 1.0 0.00 0.00 0.00 63 1004.8
20260505034606 59 153 0.0 0.0 0.00 0.00 0.00 63 1004.8
20260505034102 59 225 2.0 2.0 0.00 0.00 0.00 60 1004.7
20260505033559 59 136 0.0 1.0 0.00 0.00 0.00 64 1004.9
20260505033058 59 185 0.0 0.0 0.00 0.00 0.00 60 1005.0
20260505032555 58 240 2.0 2.0 0.00 0.00 0.00 60 1004.9
20260505032051 59 160 0.0 1.0 0.00 0.00 0.00 61 1005.0
20260505031549 59 193 0.0 0.0 0.00 0.00 0.00 60 1005.0
20260505031045 59 144 1.0 1.0 0.00 0.00 0.00 61 1004.8
20260505030542 60 146 1.0 1.0 0.00 0.00 0.00 59 1005.0
20260505030038 59 182 0.0 0.0 0.00 0.00 0.00 59 1005.0
20260505025534 58 220 1.0 1.0 0.00 0.00 0.00 60 1004.9
20260505025033 59 151 0.0 0.0 0.00 0.00 0.00 61 1005.0
20260505024530 59 189 0.0 1.0 0.00 0.00 0.00 61 1004.9
20260505024027 59 196 0.0 1.0 0.00 0.00 0.00 63 1005.2
20260505023524 59 150 0.0 0.0 0.00 0.00 0.00 60 1005.0
20260505023021 58 172 1.0 1.0 0.00 0.00 0.00 62 1004.9
20260505022519 58 132 0.0 1.0 0.00 0.00 0.00 65 1005.1
20260505022016 57 168 1.0 1.0 0.00 0.00 0.00 63 1005.0
20260505021512 55 145 1.0 1.0 0.00 0.00 0.00 63 1005.2
20260505021009 55 196 0.0 0.0 0.00 0.00 0.00 69 1005.4
20260505020503 55 158 1.0 1.0 0.00 0.00 0.00 67 1005.2
20260505020000 52 138 1.0 2.0 0.00 0.00 0.00 72 1005.4
20260505015458 51 180 0.0 0.0 0.00 0.00 0.00 79 1005.2
20260505014954 50 149 0.0 0.0 0.00 0.00 0.00 81 1005.1
20260505014451 50 177 0.0 1.0 0.00 0.00 0.00 81 1005.0
20260505013949 51 181 0.0 0.0 0.00 0.00 0.00 80 1005.1
20260505013446 51 181 0.0 0.0 0.00 0.00 0.00 79 1005.2
20260505012943 51 181 1.0 1.0 0.00 0.00 0.00 78 1005.1
20260505012441 52 181 0.0 0.0 0.00 0.00 0.00 78 1005.1
20260505011938 52 181 0.0 0.0 0.00 0.00 0.00 76 1004.9
20260505011433 52 181 0.0 1.0 0.00 0.00 0.00 76 1004.9
20260505010930 53 181 0.0 0.0 0.00 0.00 0.00 75 1004.8
20260505010426 53 182 0.0 0.0 0.00 0.00 0.00 73 1004.9
20260505005922 55 177 0.0 0.0 0.00 0.00 0.00 72 1004.8
20260505005419 55 179 0.0 0.0 0.00 0.00 0.00 71 1004.8
20260505004917 57 181 1.0 1.0 0.00 0.00 0.00 66 1004.7
20260505004413 58 161 0.0 0.0 0.00 0.00 0.00 62 1004.8
20260505003910 59 161 0.0 0.0 0.00 0.00 0.00 59 1004.6
20260505003407 60 161 0.0 0.0 0.00 0.00 0.00 59 1004.5
20260505002904 60 150 0.0 1.0 0.00 0.00 0.00 53 1004.5
20260505002400 60 135 0.0 1.0 0.00 0.00 0.00 55 1004.5
20260505001859 61 156 0.0 0.0 0.00 0.00 0.00 57 1004.6
20260505001355 62 158 0.0 0.0 0.00 0.00 0.00 53 1004.5
20260505000853 62 219 1.0 1.0 0.00 0.00 0.00 52 1004.6
20260505000351 62 200 0.0 1.0 0.00 0.00 0.00 52 1004.4
20260504235847 62 175 0.0 0.0 0.00 0.00 0.00 54 1004.2
20260504235344 63 177 0.0 0.0 0.00 0.00 0.00 52 1004.4
20260504234840 64 185 1.0 1.0 0.00 0.00 0.00 51 1004.3
20260504234338 65 155 0.0 0.0 0.00 0.00 0.00 49 1004.1
20260504233835 66 160 0.0 0.0 0.00 0.00 0.00 45 1004.1
20260504233330 66 155 1.0 2.0 0.00 0.00 0.00 44 1004.2
20260504232827 67 135 3.0 3.0 0.00 0.00 0.00 43 1004.0
20260504232324 67 158 1.0 2.0 0.00 0.00 0.00 44 1004.0
20260504231821 68 256 4.0 4.0 0.00 0.00 0.00 43 1003.9
20260504231318 68 114 2.0 3.0 0.00 0.00 0.00 42 1004.0
20260504230814 68 222 4.0 6.0 0.00 0.00 0.00 42 1004.1
20260504230312 68 241 2.0 3.0 0.00 0.00 0.00 42 1004.1
20260504225810 69 275 7.0 8.0 0.00 0.00 0.00 41 1004.2
20260504225306 69 204 2.0 3.0 0.00 0.00 0.00 42 1004.1
20260504224804 69 252 4.0 4.0 0.00 0.00 0.00 41 1004.1
20260504224301 69 215 5.0 7.0 0.00 0.00 0.00 40 1004.2
20260504223757 69 228 5.0 7.0 0.00 0.00 0.00 40 1004.0
20260504223253 70 316 5.0 6.0 0.00 0.00 0.00 40 1003.9
20260504222750 70 243 4.0 4.0 0.00 0.00 0.00 39 1004.0
20260504222246 70 216 2.0 2.0 0.00 0.00 0.00 40 1003.7
20260504221744 70 177 3.0 6.0 0.00 0.00 0.00 39 1004.2
20260504221241 70 183 1.0 2.0 0.00 0.00 0.00 39 1004.1
20260504220738 70 327 6.0 8.0 0.00 0.00 0.00 38 1004.4
20260504220235 70 319 4.0 8.0 0.00 0.00 0.00 40 1003.9
20260504215732 70 323 6.0 7.0 0.00 0.00 0.00 38 1004.1
20260504215229 70 311 4.0 4.0 0.00 0.00 0.00 39 1004.0
20260504214724 70 270 8.0 10.0 0.00 0.00 0.00 38 1004.0
20260504214216 70 323 4.0 6.0 0.00 0.00 0.00 40 1004.1
20260504213712 69 232 6.0 8.0 0.00 0.00 0.00 40 1004.0
20260504213209 70 246 7.0 8.0 0.00 0.00 0.00 39 1004.1
20260504212706 69 291 3.0 4.0 0.00 0.00 0.00 40 1003.9
20260504212203 69 189 3.0 3.0 0.00 0.00 0.00 43 1004.1
20260504211700 70 244 6.0 8.0 0.00 0.00 0.00 40 1004.1
20260504211156 69 255 4.0 6.0 0.00 0.00 0.00 41 1003.9
20260504210654 70 222 5.0 7.0 0.00 0.00 0.00 41 1004.4
20260504210150 71 230 4.0 6.0 0.00 0.00 0.00 39 1004.4
20260504205648 69 270 2.0 3.0 0.00 0.00 0.00 41 1004.3
20260504205144 68 219 2.0 2.0 0.00 0.00 0.00 41 1004.1
20260504204643 69 303 6.0 8.0 0.00 0.00 0.00 41 1004.1
20260504204142 69 200 4.0 7.0 0.00 0.00 0.00 42 1004.4
20260504203640 68 263 2.0 2.0 0.00 0.00 0.00 42 1004.7
20260504203137 69 305 4.0 6.0 0.00 0.00 0.00 41 1004.6
20260504202632 69 307 7.0 9.0 0.00 0.00 0.00 41 1004.4
20260504202129 67 305 3.0 3.0 0.00 0.00 0.00 42 1004.4
20260504201625 67 188 3.0 4.0 0.00 0.00 0.00 43 1004.7
20260504201124 69 291 6.0 8.0 0.00 0.00 0.00 42 1005.0
20260504200620 68 181 2.0 2.0 0.00 0.00 0.00 43 1004.8
20260504200117 67 264 3.0 3.0 0.00 0.00 0.00 44 1005.0
20260504195613 66 199 4.0 4.0 0.00 0.00 0.00 44 1004.8
20260504195109 67 170 4.0 6.0 0.00 0.00 0.00 43 1005.1
20260504194606 68 181 2.0 2.0 0.00 0.00 0.00 43 1005.1
20260504194102 66 290 3.0 3.0 0.00 0.00 0.00 43 1005.4
20260504193558 66 281 6.0 8.0 0.00 0.00 0.00 44 1005.1
20260504193057 66 321 5.0 10.0 0.00 0.00 0.00 44 1005.2
20260504192555 67 264 6.0 7.0 0.00 0.00 0.00 44 1005.4
20260504192052 67 262 2.0 2.0 0.00 0.00 0.00 42 1005.2
20260504191550 68 265 5.0 7.0 0.00 0.00 0.00 42 1005.0
20260504191046 70 218 3.0 4.0 0.00 0.00 0.00 42 1005.1
20260504190543 69 228 8.0 15.0 0.00 0.00 0.00 41 1005.2
20260504190039 69 294 10.0 13.0 0.00 0.00 0.00 41 1005.7
20260504185536 68 300 8.0 11.0 0.00 0.00 0.00 42 1005.6
20260504185033 69 252 5.0 7.0 0.00 0.00 0.00 41 1005.2
20260504184528 67 192 4.0 8.0 0.00 0.00 0.00 43 1005.4
20260504184023 66 269 6.0 7.0 0.00 0.00 0.00 46 1005.4
20260504183521 66 302 9.0 14.0 0.00 0.00 0.00 44 1005.7
20260504183019 67 296 9.0 11.0 0.00 0.00 0.00 44 1005.7
20260504182515 67 295 8.0 11.0 0.00 0.00 0.00 43 1005.8
20260504182013 66 211 5.0 8.0 0.00 0.00 0.00 46 1005.7
20260504181510 66 263 5.0 7.0 0.00 0.00 0.00 44 1005.9
20260504181009 67 65 7.0 9.0 0.00 0.00 0.00 44 1005.8
20260504180507 66 281 8.0 11.0 0.00 0.00 0.00 44 1005.7
20260504180005 67 196 2.0 3.0 0.00 0.00 0.00 44 1005.8
20260504175502 67 198 1.0 2.0 0.00 0.00 0.00 46 1005.9
20260504174959 66 171 2.0 2.0 0.00 0.00 0.00 44 1006.0
20260504174456 66 282 7.0 11.0 0.00 0.00 0.00 46 1006.0
20260504173954 66 215 4.0 6.0 0.00 0.00 0.00 45 1006.0
20260504173450 67 237 3.0 6.0 0.00 0.00 0.00 47 1005.9
20260504172947 66 187 3.0 6.0 0.00 0.00 0.00 46 1005.8
20260504172443 67 254 5.0 8.0 0.00 0.00 0.00 45 1006.0
20260504171940 66 266 4.0 6.0 0.00 0.00 0.00 46 1005.8
20260504171437 65 265 3.0 4.0 0.00 0.00 0.00 46 1006.1
20260504170934 65 327 6.0 8.0 0.00 0.00 0.00 46 1006.1
20260504170430 65 294 5.0 7.0 0.00 0.00 0.00 47 1006.1
20260504160349 63 286 8.0 11.0 0.00 0.00 0.00 48 1006.8
20260504150814 60 259 6.0 10.0 0.00 0.00 0.00 48 1007.2
20260504150311 59 281 11.0 13.0 0.00 0.00 0.00 49 1007.2
20260504141241 56 334 4.0 4.0 0.00 0.00 0.00 50 1007.8
20260504140737 56 303 7.0 10.0 0.00 0.00 0.00 52 1007.5
20260504140233 55 195 1.0 2.0 0.00 0.00 0.00 50 1007.7
20260504130702 53 134 2.0 3.0 0.00 0.00 0.00 55 1007.7
20260504130158 52 265 2.0 3.0 0.00 0.00 0.00 55 1007.9
20260504120122 49 241 2.0 3.0 0.00 0.00 0.00 62 1008.2
20260504110549 39 155 0.0 0.0 0.00 0.00 0.00 85 1008.3
20260504100511 32 232 0.0 0.0 0.00 0.00 0.00 97 1008.2
20260504081904 34 174 0.0 1.0 0.00 0.00 0.00 94 1008.4
20260504081401 34 151 0.0 0.0 0.00 0.00 0.00 94 1008.3
20260504080856 34 151 0.0 0.0 0.00 0.00 0.00 94 1008.2
20260504080354 34 150 0.0 0.0 0.00 0.00 0.00 93 1008.5
20260504070321 35 169 0.0 0.0 0.00 0.00 0.00 92 1008.4